Regional Weather Roundup
Issued by NWS Charleston, SC

Current Version | Previous Version | Graphics & Text | Print | Product List | Glossary On
Versions: 1 2 3 4 5 6 7 8 9 10 11 12 13 14 15 16 17 18 19 20 21 22 23 24 25 26 27 28 29 30 31 32 33 34 35 36 37 38 39 40 41 42 43 44 45 46 47 48 49 50
000 ASUS42 KCHS 271413 RWRCHS REGIONAL WEATHER ROUNDUP NATIONAL WEATHER SERVICE CHARLESTON SC 1000 AM EDT FRI MAY 27 2016 NOTE: "FAIR" INDICATES FEW OR NO CLOUDS BELOW 12,000 FEET WITH NO SIGNIFICANT WEATHER AND/OR OBSTRUCTIONS TO VISIBILITY. NOT ALL STATIONS ARE QUALITY CONTROLLED. USE DATA WITH CAUTION... ESPECIALLY DEWPOINT OBSERVATIONS. SCZ027-030-031-034>040-042>050-271500- ...SOUTHEAST SOUTH CAROLINA... CITY SKY/WX TMP DP RH WIND PRES REMARKS N CHARLESTON MOSUNNY 80 59 48 E10 30.14S WATERFRONT PRK N/A 77 64 64 E7 30.12S MOUNT PLEASANT FAIR 79 61 53 SE5 30.15S JOHNS ISLAND FAIR 79 61 53 E8 30.14S PINOPOLIS N/A 81 64 57 VRB2 30.07R MONCKS CORNER FAIR 75 57 53 E3 30.15F SUMMERVILLE FAIR 79 63 57 E5 30.15F BEAUFORT MCAS SUNNY 79 61 53 SE9 30.13S BEAUFORT ARPT FAIR 79 59 50 E6 30.13S HILTON HEAD IS SUNNY 81 61 50 E7 30.15S WALTERBORO SUNNY 81 61 50 E5 30.16R ALLENDALE FAIR 77 61 57 CALM 30.14S ...SOUTHERN MIDLANDS AND PEE DEE... CITY SKY/WX TMP DP RH WIND PRES REMARKS GEORGETOWN FAIR 79 55 44 SE7 30.17R KINGSTREE FAIR 79 57 47 E5 30.15F ORANGEBURG SUNNY 78 62 57 CALM 30.15F BARNWELL FAIR 81 66 61 E7 30.15F AIKEN PTSUNNY 73 63 68 CALM 30.19S MANNING FAIR 77 61 57 CALM 30.15F COLUMBIA PTSUNNY 78 64 61 CALM 30.15S SUMTER SUNNY 77 63 61 S5 30.14S FLORENCE PTSUNNY 77 63 61 S5 30.16F MYRTLE BEACH SUNNY 81 61 50 SE8 30.18R N MYRTLE BEACH SUNNY 78 62 57 VRB6 30.17R $$ GAZ063-065-086>088-099>101-113>116-118-119-134>141-150-271500- ...SOUTHEAST GEORGIA... CITY SKY/WX TMP DP RH WIND PRES REMARKS SAVANNAH ARPT MOSUNNY 80 61 52 E8 30.13S HUNTER AAF SUNNY 80 63 57 E12 30.10F FORT STEWART SUNNY 79 59 51 E6 30.10S STATESBORO SUNNY 78 63 59 SE7 30.13F SYLVANIA SUNNY 80 63 56 SE3 30.15S CLAXTON FAIR 78 63 60 E7 30.13F ...CSRA...CENTRAL AND FAR SOUTHEAST GEORGIA... CITY SKY/WX TMP DP RH WIND PRES REMARKS THOMSON PTSUNNY 75 65 71 SW3 30.20S AUGUSTA-BUSH PTSUNNY 75 64 68 VRB3 30.15S AUGUSTA-DANIEL PTSUNNY 75 62 64 CALM 30.16S SWAINSBORO FAIR 77 61 57 SE5 30.16R VIDALIA SUNNY 77 61 57 E7 30.15R EASTMAN FAIR 77 62 59 SE6 30.16F HAZLEHURST FAIR 79 61 53 CALM 30.13R ALMA MOSUNNY 77 59 53 E6 30.12S WAYCROSS SUNNY 78 61 57 SE8 30.12S JESUP FAIR 75 61 60 E9 30.12F BAXLEY FAIR 79 59 50 E6 30.13R BRUNSWICK PTSUNNY 79 63 57 E8G17 30.12S SAINT SIMONS SUNNY 79 62 56 E13 30.11R $$ SCZ027-028-034-036>038-045-046-048>050-GAZ119-141-271500- ...LAKE AND SUPPLEMENTAL COASTAL OBSERVATIONS... STATION/POSITION TIME TEMP WIND PRES WAVE SWELL AIR SEA DIR/SP/G HT/PER HT/PER/DIR (UTC) (F) (DEG/KT/KT) (MB) (FT/S) (FT/S/D) WINYAH BAY NOT AVBL LAKE MURRAY 1300 71 170/ 3/ 4 1020.7S ACE BASIN NERRS NOT AVBL FORT PULASKI 1300 76 76 60/ 10/ 13 1020.5R SAPELO ISLAND 1300 79 60/ 8 1019.0F $$ ANZ835-935-AMZ111-154-330-350-352-354-370-450-454-472-271500- ...C-MAN AND BUOY OBSERVATIONS... STATION/POSITION TIME TEMP WIND PRES WAVE SWELL AIR SEA DIR/SP/G HT/PER HT/PER/DIR (UTC) (F) (DEG/KT/KT) (MB) (FT/S) (FT/S/D) BUOY 41004 1350 76 77 40/ 12/ 14 1020.3S 3/ 5 2/ 8 BUOY 41008 1350 76 76 80/ 12/ 16 1019.6R 3/ 6 2/110/ 8 FOLLY BEACH CMAN 1400 78 70/ 8/ 8 1020.9R CAPERS NEARSHORE 1308 77 76 90/ 6/ 8 1020.5F FRIPP NEARSHORE 1308 76 76 80/ 10/ 12 1019.8F STATION/POSITION TIME TEMP WIND PRES WAVE SWELL AIR SEA DIR/SP/G HT/PER HT/PER/DIR (UTC) (F) (DEG/KT/KT) (MB) (FT/S) (FT/S/D) 5E ST. MARYS GA 1301 77 N/A 3/ 5 FRYING PAN BUOY 1300 76 76 80/ 8/ 10 1021.4R BUOY 41025 1350 77 81 20/ 2/ 4 1022.3F 2/ 8 2/110/ 8 CAPE LOOKOUT NC NOT AVBL BUOY 41002 1350 74 78 60/ 14/ 17 1019.7R 3/ 4 2/130/ 7 BUOY 41010 1320 77 78 50/ 14/ 16 1017.5R ST AUGUSTINE FL 1400 77 78 70/ 11/ 12 1019.8R $$

USA.gov is the U.S. government's official web portal to all federal, state and local government web resources and services.